EW7714 Weather Reports


time (UTC)temp
C
wind
direction
speed
KPH
gust
KPH
rain 1hr
cm
rain 24hr
cm
rain mn
cm
humidity
%
barometer
mb
20260508130057 18 97 0.0 6.4 0.00 2.34 0.00 91 1015.3
20260508130000 18 97 1.6 6.4 0.00 2.34 0.00 91 1015.5
20260508125000 18 71 3.2 6.4 0.00 2.34 0.00 91 1015.6
20260508124557 18 69 3.2 8.0 0.00 2.34 0.00 91 1015.2
20260508123959 17 74 1.6 6.4 0.00 2.34 0.00 92 1015.4
20260508123058 17 76 1.6 6.4 0.00 2.34 0.00 92 1015.4
20260508122959 17 76 1.6 6.4 0.00 2.34 0.00 92 1015.6
20260508122004 17 76 1.6 4.8 0.00 2.34 0.00 92 1015.8
20260508121605 17 76 1.6 4.8 0.00 2.34 0.00 92 1015.7
20260508121000 17 76 1.6 4.8 0.00 2.34 0.00 93 1015.9
20260508120005 17 78 0.0 3.2 0.00 2.34 0.00 93 1015.6
20260508115000 17 77 1.6 3.2 0.00 2.34 0.00 93 1015.4
20260508114558 17 77 0.0 3.2 0.00 2.34 0.00 93 1015.1
20260508114000 17 77 1.6 4.8 0.00 2.34 0.00 93 1015.2
20260508113100 17 78 0.0 4.8 0.00 2.34 0.00 92 1014.7
20260508113001 17 78 1.6 4.8 0.00 2.34 0.00 92 1014.8
20260508112004 17 78 1.6 3.2 0.00 2.34 0.00 93 1014.4
20260508111601 17 78 1.6 3.2 0.00 2.34 0.00 92 1014.3
20260508111000 17 78 1.6 4.8 0.00 2.34 0.00 92 1014.2
20260508110103 17 78 1.6 4.8 0.00 2.34 0.00 91 1014.0
20260508104557 17 72 0.0 1.6 0.00 2.34 0.00 91 1014.3
20260508103958 17 72 1.6 4.8 0.00 2.34 0.00 91 1014.3
20260508103128 17 71 3.2 8.0 0.00 2.34 0.00 91 1013.8
20260508102959 17 75 3.2 6.4 0.00 2.34 0.00 91 1014.1
20260508101614 17 80 0.0 6.4 0.00 2.34 0.00 91 1014.0
20260508100959 17 76 1.6 3.2 0.00 2.34 0.00 91 1014.2
20260508100057 17 76 1.6 4.8 0.00 2.34 0.00 91 1013.9
20260508094959 17 76 0.0 3.2 0.00 2.34 0.00 92 1014.0
20260508094612 17 76 0.0 6.4 0.00 2.34 0.00 92 1013.7
20260508093959 17 76 3.2 6.4 0.00 2.34 0.00 91 1013.7
20260508093057 17 75 1.6 4.8 0.00 2.34 0.00 92 1013.5
20260508092959 17 75 1.6 4.8 0.00 2.34 0.00 92 1013.7
20260508091959 17 74 1.6 4.8 0.00 2.34 0.00 93 1013.8
20260508091557 17 74 0.0 4.8 0.00 2.34 0.00 92 1013.8
20260508090959 17 74 1.6 3.2 0.00 2.34 0.00 93 1014.0
20260508090113 17 74 0.0 4.8 0.00 2.34 0.00 92 1013.5
20260508090005 17 74 3.2 4.8 0.00 2.34 0.00 92 1013.7
20260508084959 17 74 3.2 11.3 0.00 2.34 0.00 92 1013.6
20260508084600 17 77 1.6 4.8 0.00 2.34 0.00 92 1013.4
20260508083959 17 77 1.6 4.8 0.00 2.34 0.00 92 1013.4
20260508083120 17 77 1.6 4.8 0.00 2.34 0.00 92 1013.2
20260508082959 17 77 1.6 6.4 0.00 2.34 0.00 92 1013.5
20260508082000 17 77 0.0 3.2 0.00 2.34 0.00 93 1013.8
20260508081556 17 77 0.0 3.2 0.00 2.34 0.00 93 1013.5
20260508080959 17 77 1.6 4.8 0.00 2.34 0.00 92 1013.5
20260508080056 17 78 0.0 4.8 0.00 2.34 0.00 92 1013.1
20260508075958 17 78 3.2 4.8 0.00 2.34 0.00 92 1013.3
20260508074958 17 76 1.6 8.0 0.00 2.34 0.00 93 1013.6
20260508074556 17 33 3.2 6.4 0.00 2.34 0.00 93 1013.3
20260508073959 17 14 1.6 4.8 0.00 2.34 0.00 93 1013.7
20260508073056 17 13 0.0 3.2 0.00 2.34 0.00 94 1013.3
20260508072957 17 13 1.6 3.2 0.00 2.34 0.00 94 1013.6
20260508071959 17 13 1.6 3.2 0.00 2.34 0.00 94 1013.6
20260508071556 17 13 0.0 3.2 0.00 2.34 0.00 94 1013.6
20260508070056 17 13 0.0 3.2 0.00 2.34 0.00 94 1013.4
20260508070002 17 13 1.6 3.2 0.00 2.34 0.00 94 1013.6
20260508064601 17 13 0.0 3.2 0.00 2.34 0.00 95 1013.8
20260508063959 17 13 1.6 4.8 0.00 2.34 0.00 94 1014.1
20260508063056 17 13 0.0 3.2 0.00 2.34 0.00 94 1014.0
20260508062959 17 13 1.6 3.2 0.00 2.34 0.00 94 1014.3
20260508061559 17 13 0.0 4.8 0.00 2.34 0.00 95 1014.0
20260508061000 17 13 0.0 3.2 0.00 2.34 0.00 95 1014.3
20260508060057 17 13 0.0 3.2 0.00 2.34 0.00 95 1014.4
20260508060002 17 13 1.6 3.2 0.00 2.34 0.00 95 1014.6
20260508055004 17 13 0.0 3.2 0.00 2.34 0.00 95 1014.6
20260508054605 17 13 0.0 3.2 0.00 2.34 0.00 95 1014.4
20260508053101 17 13 1.6 3.2 0.00 2.34 0.00 95 1014.4
20260508053005 17 13 1.6 3.2 0.00 2.34 0.00 95 1014.6
20260508052004 17 13 0.0 3.2 0.00 2.34 0.00 95 1014.5
20260508051602 18 13 0.0 3.2 0.00 2.34 0.00 95 1014.4
20260508051004 18 13 1.6 3.2 0.00 2.34 0.00 95 1014.6
20260508050100 18 13 1.6 3.2 0.00 2.34 0.00 95 1014.4
20260508050005 18 13 0.0 3.2 0.00 2.34 2.34 95 1014.7
20260508045004 18 13 1.6 3.2 0.00 2.34 2.34 94 1014.8
20260508044602 18 13 0.0 4.8 0.00 2.34 2.34 95 1014.7
20260508044004 18 13 0.0 4.8 0.00 2.34 2.34 94 1014.7
20260508043104 18 13 0.0 4.8 0.00 2.34 2.34 94 1014.9
20260508042004 18 11 1.6 4.8 0.00 2.34 2.34 94 1014.7
20260508041601 18 21 1.6 4.8 0.00 2.34 2.34 94 1014.4
20260508041003 18 17 1.6 4.8 0.00 2.34 2.34 94 1014.6
20260508040059 19 15 1.6 6.4 0.00 2.34 2.34 94 1014.3
20260508040006 19 15 1.6 6.4 0.00 2.34 2.34 94 1014.5
20260508040002 19 15 1.6 6.4 0.00 2.34 2.34 94 1014.3
20260508035005 19 14 1.6 8.0 0.00 2.34 2.34 94 1014.5
20260508034604 19 14 1.6 8.0 0.00 2.34 2.34 94 1014.3
20260508034013 19 9 1.6 6.4 0.00 2.34 2.34 93 1014.4
20260508033059 19 355 0.0 3.2 0.00 2.34 2.34 93 1014.2
20260508033004 19 355 1.6 3.2 0.00 2.34 2.34 93 1014.5
20260508032004 20 355 0.0 4.8 0.00 2.34 2.34 93 1014.7
20260508031600 20 355 0.0 1.6 0.00 2.34 2.34 93 1014.4
20260508031004 20 355 0.0 1.6 0.00 2.34 2.34 93 1014.7
20260508030108 20 355 0.0 4.8 0.00 2.34 2.34 92 1014.7
20260508030001 20 355 0.0 4.8 0.00 2.34 2.34 92 1014.7
20260508025004 20 351 1.6 4.8 0.00 2.34 2.34 92 1015.1
20260508024559 20 351 0.0 4.8 0.00 2.34 2.34 92 1014.7
20260508024004 20 351 1.6 4.8 0.00 2.34 2.34 92 1014.8
20260508023058 20 351 1.6 4.8 0.00 2.34 2.34 92 1014.5
20260508023005 20 351 1.6 4.8 0.00 2.34 2.34 92 1014.8
20260508022004 21 340 1.6 4.8 0.00 2.34 2.34 92 1014.7
20260508021559 21 340 1.6 3.2 0.00 2.34 2.34 92 1014.5
20260508021004 21 340 0.0 3.2 0.00 2.34 2.34 92 1014.5
20260508020059 21 340 0.0 3.2 0.00 2.34 2.34 92 1014.2
20260508020005 21 340 0.0 3.2 0.00 2.34 2.34 92 1014.5
20260508015004 21 340 1.6 3.2 0.00 2.34 2.34 92 1014.2
20260508014559 21 340 0.0 6.4 0.00 2.34 2.34 93 1013.8
20260508014004 21 340 1.6 6.4 0.00 2.34 2.34 93 1014.1
20260508013059 21 327 1.6 4.8 0.00 2.34 2.34 94 1013.4
20260508012004 21 321 0.0 1.6 0.00 2.34 2.34 93 1013.4
20260508011559 22 321 0.0 1.6 0.00 2.34 2.34 93 1013.1
20260508011004 22 321 0.0 1.6 0.00 2.34 2.34 93 1013.3
20260508010058 22 321 0.0 1.6 0.00 2.34 2.34 93 1012.9
20260508010004 22 321 0.0 1.6 0.00 2.34 2.34 93 1013.1
20260508005005 22 321 0.0 0.0 0.00 2.34 2.34 93 1013.1
20260508004601 22 321 0.0 0.0 0.00 2.34 2.34 93 1012.9
20260508004004 22 321 0.0 3.2 0.00 2.34 2.34 93 1013.2
20260508003107 22 321 0.0 3.2 0.00 2.34 2.34 92 1013.0
20260508003005 22 321 0.0 1.6 0.00 2.34 2.34 91 1013.2
20260508002002 22 321 0.0 0.0 0.00 2.34 2.34 91 1013.4
20260508001600 22 321 0.0 0.0 0.00 2.34 2.34 91 1013.1
20260508000006 22 314 1.6 3.2 0.00 2.34 2.34 90 1013.0
20260508000001 22 314 0.0 3.2 0.00 2.34 2.34 90 1012.7
20260507235004 23 314 0.0 1.6 0.00 2.34 2.34 90 1013.2
20260507234601 23 314 0.0 1.6 0.00 2.34 2.34 90 1012.8
20260507234004 23 314 1.6 3.2 0.00 2.34 2.34 90 1013.1
20260507233059 23 313 0.0 4.8 0.00 2.34 2.34 90 1012.7
20260507233004 23 313 1.6 4.8 0.00 2.34 2.34 89 1013.1
20260507231602 23 310 0.0 3.2 0.00 2.34 2.34 89 1012.8
20260507231003 23 310 1.6 3.2 0.00 2.34 2.34 90 1013.0
20260507230101 23 310 0.0 3.2 0.00 2.34 2.34 89 1012.8
20260507230005 23 310 1.6 3.2 0.00 2.34 2.34 90 1013.1
20260507225004 23 310 1.6 3.2 0.00 2.34 2.34 89 1013.0
20260507224616 23 310 0.0 1.6 0.00 2.34 2.34 89 1012.8
20260507224002 24 310 0.0 0.0 0.00 2.34 2.34 89 1012.8
20260507223101 24 310 0.0 3.2 0.00 2.34 2.34 87 1012.6
20260507223005 24 310 0.0 3.2 0.00 2.34 2.34 87 1012.9
20260507222003 24 310 0.0 3.2 0.00 2.34 2.34 89 1012.8
20260507221559 24 310 0.0 3.2 0.00 2.34 2.34 87 1012.5
20260507221004 24 310 1.6 3.2 0.00 2.34 2.34 87 1012.7
20260507220058 24 309 0.0 4.8 0.00 2.34 2.34 88 1012.3
20260507220005 24 309 1.6 4.8 0.00 2.34 2.34 88 1012.6
20260507214605 24 307 1.6 4.8 0.00 2.34 2.34 89 1012.4
20260507213058 24 307 0.0 4.8 0.00 2.34 2.34 90 1012.5
20260507212005 24 307 1.6 3.2 0.00 2.34 2.34 91 1012.7
20260507211628 24 307 1.6 4.8 0.00 2.34 2.34 89 1012.4
20260507211005 24 308 1.6 4.8 0.00 2.34 2.34 90 1012.7
20260507210059 24 308 1.6 6.4 0.00 2.34 2.34 89 1012.4
20260507210005 24 308 1.6 6.4 0.00 2.41 2.34 89 1012.7
20260507205004 25 350 1.6 3.2 0.00 2.41 2.34 89 1012.6
20260507204605 25 350 1.6 4.8 0.00 2.41 2.34 89 1012.4
20260507203106 25 355 0.0 4.8 0.00 2.41 2.34 89 1012.4
20260507203002 25 351 1.6 4.8 0.00 2.41 2.34 90 1012.7
20260507202004 25 350 1.6 4.8 0.00 2.41 2.34 90 1012.5
20260507201612 25 350 0.0 4.8 0.00 2.41 2.34 89 1012.3
20260507201004 25 63 0.0 3.2 0.00 2.41 2.34 91 1012.5
20260507200104 25 63 0.0 3.2 0.00 2.41 2.34 87 1012.4
20260507200004 25 63 1.6 3.2 0.00 2.41 2.34 87 1012.7
20260507195003 25 63 1.6 4.8 0.00 2.41 2.34 87 1012.8
20260507194601 25 62 1.6 4.8 0.00 2.41 2.34 88 1012.6
20260507193057 25 63 1.6 4.8 0.00 2.41 2.34 89 1012.6
20260507193000 25 63 1.6 3.2 0.00 2.41 2.34 88 1012.9
20260507192000 25 63 1.6 8.0 0.00 2.41 2.34 88 1012.9
20260507191558 24 74 0.0 4.8 0.00 2.41 2.34 91 1012.6
20260507191000 24 75 0.0 1.6 0.00 2.41 2.34 91 1013.0
20260507190057 24 75 0.0 4.8 0.00 2.41 2.34 90 1012.7
20260507190006 24 75 1.6 4.8 0.00 2.41 2.34 91 1013.0
20260507185004 23 77 1.6 6.4 0.00 2.41 2.34 94 1013.0
20260507184559 23 77 1.6 8.0 0.00 2.41 2.34 94 1012.8
20260507184004 23 64 3.2 8.0 0.00 2.41 2.34 95 1013.0
20260507183059 22 267 3.2 8.0 0.00 2.41 2.34 97 1012.9
20260507183005 22 98 3.2 8.0 0.00 2.41 2.34 97 1013.2
20260507182004 22 70 1.6 8.0 0.00 2.41 2.34 99 1013.3
20260507181559 22 295 0.0 3.2 0.00 2.41 2.34 100 1013.1
20260507181003 21 294 1.6 3.2 0.00 2.41 2.34 100 1013.5
20260507180100 21 293 0.0 4.8 0.00 2.41 2.34 100 1013.5
20260507180003 21 293 1.6 4.8 0.00 2.46 2.34 100 1013.7
20260507174959 21 288 1.6 8.0 0.00 2.46 2.34 100 1013.7
20260507174559 21 307 1.6 8.0 0.00 2.46 2.34 100 1013.3
20260507173102 21 302 0.0 8.0 0.00 2.46 2.34 100 1013.5
20260507173001 21 302 1.6 8.0 0.00 2.46 2.34 100 1013.9
20260507172000 21 49 1.6 4.8 0.00 2.46 2.34 100 1014.1
20260507171559 21 51 1.6 4.8 0.00 2.46 2.34 99 1014.0
20260507171000 21 50 3.2 4.8 0.03 2.46 2.34 100 1014.4
20260507170058 21 59 1.6 6.4 0.08 2.46 2.34 100 1014.1
20260507165000 21 82 1.6 6.4 0.08 2.46 2.34 100 1014.2
20260507164559 21 100 0.0 4.8 0.10 2.46 2.34 100 1013.9
20260507164000 21 338 1.6 4.8 0.13 2.46 2.34 100 1014.2
20260507163057 21 317 0.0 6.4 0.13 2.46 2.34 100 1013.9
20260507163000 21 317 1.6 6.4 0.13 2.46 2.34 100 1014.2
20260507162000 22 14 1.6 4.8 0.20 2.46 2.34 100 1014.0
20260507161601 22 331 1.6 4.8 0.30 2.46 2.34 100 1014.0
20260507160959 22 332 1.6 4.8 0.33 2.44 2.31 100 1014.2
20260507160107 22 340 1.6 4.8 0.41 2.39 2.26 100 1013.7
20260507160002 22 139 1.6 3.2 0.41 2.46 2.26 100 1013.9
20260507155004 22 285 0.0 3.2 0.74 2.46 2.26 100 1014.1
20260507154559 22 285 0.0 3.2 0.71 2.44 2.24 100 1013.9
20260507154000 21 286 1.6 4.8 0.74 2.41 2.21 100 1014.0
20260507153101 21 282 0.0 3.2 1.07 2.41 2.21 100 1013.5
20260507153002 21 282 0.0 3.2 1.07 2.41 2.21 100 1013.8
20260507152004 21 289 1.6 3.2 0.99 2.34 2.13 100 1013.7
20260507151559 21 289 0.0 3.2 0.89 2.24 2.03 100 1013.5
20260507150058 21 289 0.0 3.2 1.09 2.06 1.85 99 1013.3
20260507150002 21 289 1.6 3.2 1.12 2.06 1.85 99 1013.6
20260507145000 21 289 0.0 1.6 1.37 1.73 1.52 99 1013.5
20260507144557 21 289 0.0 4.8 1.40 1.70 1.50 99 1013.0
20260507143100 21 295 1.6 4.8 1.14 1.35 1.14 98 1013.3
20260507143002 21 295 1.6 4.8 1.14 1.35 1.14 98 1013.4
20260507142000 21 295 1.6 3.2 1.14 1.35 1.14 98 1013.3
20260507141559 21 295 0.0 4.8 1.14 1.35 1.14 98 1012.3
20260507140109 22 227 3.2 9.7 0.76 0.97 0.76 98 1012.5
20260507135004 23 301 1.6 6.4 0.15 0.36 0.15 98 1012.8
20260507134558 23 300 1.6 6.4 0.10 0.30 0.10 98 1012.6
20260507134000 23 327 1.6 4.8 0.10 0.30 0.10 97 1012.3
20260507133100 23 324 1.6 6.4 0.00 0.20 0.00 97 1012.3
20260507133000 23 324 1.6 6.4 0.00 0.20 0.00 98 1012.6
20260507132000 24 257 3.2 11.3 0.00 0.20 0.00 97 1012.4
20260507131602 24 244 3.2 11.3 0.00 0.20 0.00 97 1012.1